#timestamp,LO_Frequency,Hit 
1500339615.5,286047155.0,N
1500339635.3,286047157.1,N
1500339655.2,286047155.2,N
1500339675.0,286047155.9,N
1500339675.9,286047155.9,N
1500339695.7,286047156.4,N
1500339715.6,286047154.6,N
1500339735.4,286047155.6,N
1500339755.2,286047153.6,N
1500339775.1,286047154.3,N
1500339776.0,286047154.3,N
1500339795.8,286047155.9,N
1500339815.6,286047158.0,N
1500339835.5,286047154.9,N
1500339855.3,286047153.9,N
1500339875.1,286047148.5,N
1500339895.9,286047150.0,N
1500339915.7,286047151.0,N
1500339935.5,286047152.2,N
1500339955.4,286047153.6,N
1500339975.2,286047152.6,N
1500339995.0,286047152.1,N
1500339995.9,286047152.1,N
1500340015.8,286047152.9,N
1500340035.6,286047154.6,N
1500340055.4,286047154.5,N
1500340075.3,286047155.6,N
1500340095.1,286047156.1,N
1500340096.0,286047156.1,N
1500340115.8,286047155.7,N
1500340135.7,286047154.7,N
1500340155.5,286047155.5,N
1500340175.3,286047156.8,N
1500340195.2,286047159.5,N
1500340215.9,286047156.8,N
1500340235.7,286047159.0,N
1500340255.5,286047158.9,N
1500340275.4,286047157.0,N
1500340295.2,286047157.0,N
1500340315.0,286047157.2,N
1500340315.9,286047157.2,N
1500340335.8,286047156.5,N
1500340355.6,286047158.4,N
1500340375.4,286047160.7,N
1500340395.3,286047159.1,N
1500340415.1,286047160.5,N
1500340435.8,286047160.6,N
1500340455.7,286047160.1,N
1500340475.5,286047160.9,N
1500340495.3,286047159.7,N
1500340515.2,286047159.8,N
1500340535.9,286047158.4,N
1500340555.7,286047158.5,N
1500340575.6,286047162.4,N
1500340595.4,286047162.6,N
1500340615.2,286047161.8,N
1500340635.1,286047164.0,N
1500340636.0,286047164.0,N
1500340655.8,286047165.9,N
1500340675.6,286047165.0,N
1500340695.5,286047167.4,N
1500340715.3,286047169.0,N
1500340735.1,286047166.9,N
1500340755.9,286047167.1,N
1500340775.7,286047167.0,N
1500340795.5,286047166.7,N
1500340815.3,286047167.2,N
1500340835.2,286047166.6,N
1500340855.0,286047167.4,N
1500340855.9,286047167.4,N
1500340875.7,286047166.0,N
1500340895.6,286047165.3,N
1500340915.4,286047166.7,N
1500340935.2,286047166.3,N
1500340955.1,286047166.2,N
1500340956.0,286047166.2,N
1500340975.8,286047164.5,N
1500340995.6,286047167.5,N
1500341015.5,286047163.7,N
1500341035.3,286047164.2,N
1500341055.1,286047159.9,N
1500341075.9,286047162.8,N
1500341095.7,286047163.0,N
1500341115.5,286047165.5,N
1500341135.4,286047165.7,N
1500341155.2,286047165.3,N
1500341175.0,286047165.6,N
1500341175.9,286047165.6,N
1500341195.8,286047165.4,N
1500341215.6,286047165.0,N
1500341235.4,286047164.9,N
1500341255.3,286047166.4,N
1500341275.1,286047167.2,N
1500341276.0,286047167.2,N
1500341295.8,286047166.7,N
1500341315.7,286047168.4,N
1500341335.5,286047170.2,N
1500341355.3,286047169.8,N
1500341375.2,286047169.5,N
1500341395.9,286047172.3,N
1500341415.7,286047171.9,N
1500341435.5,286047171.9,N
1500341455.4,286047172.4,N
1500341475.2,286047170.5,N
1500341495.0,286047170.4,N
1500341495.9,286047170.4,N
1500341515.8,286047169.6,N
1500341535.6,286047171.0,N
1500341555.4,286047172.9,N
1500341575.3,286047172.8,N
1500341595.1,286047173.1,N
1500341615.8,286047172.6,N
1500341635.7,286047171.5,N
1500341655.5,286047171.8,N
1500341675.3,286047171.7,N
1500341695.2,286047170.9,N
1500341715.9,286047172.9,N
1500341735.7,286047172.7,N
1500341755.6,286047172.9,N
1500341775.4,286047175.2,N
1500341795.2,286047173.4,N
1500341815.1,286047172.8,N
1500341816.0,286047172.8,N
1500341835.8,286047175.1,N
1500341855.6,286047174.8,N
1500341875.5,286047174.7,N
1500341895.3,286047174.6,N
1500341915.1,286047177.2,N
1500341935.9,286047175.0,N
1500341955.7,286047174.7,N
1500341975.5,286047174.1,N
1500341995.4,286047174.1,N
1500342015.2,286047174.8,N
1500342035.0,286047174.9,N
1500342035.9,286047174.9,N
1500342055.8,286047175.2,N
1500342075.6,286047173.0,N
1500342095.4,286047175.0,N
1500342115.2,286047175.6,N
1500342135.1,286047174.7,N
1500342136.0,286047174.7,N
1500342155.8,286047175.1,N
1500342175.6,286047174.6,N
1500342195.5,286047174.5,N
1500342215.3,286047176.0,N
1500342235.1,286047178.4,N
1500342255.9,286047176.2,N
1500342275.7,286047175.8,N
1500342295.5,286047177.8,N
1500342315.4,286047178.7,N
1500342335.2,286047177.4,N
1500342355.0,286047176.7,N
1500342355.9,286047176.7,N
1500342375.8,286047173.7,N
1500342395.6,286047175.1,N
1500342415.4,286047175.5,N
1500342435.3,286047172.9,N
1500342455.1,286047173.2,N
1500342456.0,286047173.2,N
1500342475.8,286047174.9,N
1500342495.7,286047176.8,N
1500342515.5,286047175.9,N
1500342535.3,286047178.6,N
1500342555.2,286047177.4,N
1500342575.9,286047177.5,N
1500342595.7,286047177.3,N
1500342615.6,286047177.9,N
1500342635.4,286047179.6,N
1500342655.2,286047179.6,N
1500342675.1,286047181.9,N
1500342676.0,286047181.9,N
1500342695.8,286047181.3,N
1500342715.6,286047179.8,N
1500342735.4,286047179.0,N
1500342755.3,286047179.6,N
1500342775.1,286047177.7,N
1500342795.8,286047180.1,N
1500342815.7,286047177.7,N
1500342835.5,286047179.5,N
1500342855.3,286047179.8,N
1500342875.2,286047179.7,N
1500342895.0,286047174.1,N
1500342895.9,286047174.1,N
1500342915.7,286047174.5,N
1500342935.6,286047178.3,N
1500342955.4,286047178.5,N
1500342975.2,286047176.4,N
1500342995.1,286047176.3,N
1500342996.0,286047176.3,N
1500343015.8,286047178.7,N
1500343035.6,286047178.0,N
1500343055.5,286047179.9,N
1500343075.3,286047177.5,N
1500343095.1,286047176.0,N
1500343115.9,286047174.6,N
1500343135.7,286047174.1,N
1500343155.5,286047178.8,N
1500343175.4,286047178.7,N
1500343195.2,286047178.7,N
